Location: Rio Negrinho
(26.2394°S, 49.4999°W)
Time: 12:39:16
(UTC+00:00)

NOAA 6 - Pass Details

Date: 07 October 2020
Orbit: 773 x 786 km, 98.7° (Epoch: 26 October)

Event Time Altitude Azimuth Distance (km) Brightness Sun altitude
Rises 07:06:17 0° 64° (ENE) 3,258 7.9 -23.6°
Reaches altitude 10° 07:10:44 10° 101° (E) 2,338 7.6 -22.7°
Maximum altitude 07:11:49 11° 114° (ESE) 2,295 7.6 -22.4°
Drops below altitude 10° 07:12:55 10° 126° (SE) 2,342 7.5 -22.2°
Sets 07:17:23 0° 162° (SSE) 3,278 7.8 -21.3°
